Regional Weather Roundup
Issued by NWS Newport/Morehead, NC

Current Version | Previous Version | Text Only | Print | Product List | Glossary On
Versions: 1 2 3 4 5 6 7 8 9 10 11 12 13 14 15 16 17 18 19 20 21 22 23 24 25 26 27 28 29 30 31 32 33 34 35 36 37 38 39 40 41 42 43 44 45 46 47 48 49 50
521
ASUS42 KMHX 291614
RWRMHX
WEATHER ROUNDUP FOR EASTERN NORTH CAROLINA
NATIONAL WEATHER SERVICE NEWPORT/MOREHEAD CITY NC
1200 PM EDT MON MAY 29 2017

NOTE: "FAIR" INDICATES FEW OR NO CLOUDS BELOW 12,000 FEET
WITH NO SIGNIFICANT WEATHER AND/OR OBSTRUCTIONS TO VISIBILITY

NCZ015>017-031-032-045>047-102-103-291700-
NORTH COAST

CITY           SKY/WX    TMP DP  RH WIND       PRES   REMARKS
EDENTON        SUNNY     84  67  54 NW10      29.93R
ELIZABETH CITY SUNNY     82  70  66 W10       29.92R
KITTY HAWK     SUNNY     79  69  70 CALM      29.91R
MANTEO         SUNNY     80  67  65 N7        29.93R

$$

NCZ045>047-081-094-103-104-291700-
CENTRAL COAST

CITY           SKY/WX    TMP DP  RH WIND       PRES   REMARKS
FRISCO         SUNNY     83  70  64 VRB7      29.93R

$$

NCZ095-097-098-100-101-291700-
SOUTHERN COAST

CITY           SKY/WX    TMP DP  RH WIND       PRES   REMARKS
BEAUFORT       SUNNY     83  71  67 SW9       29.94R
CEDAR ISLAND   NOT AVBL
JACKSONVILLE   NOT AVBL
PINEY ISLAND   SUNNY    N/A N/A N/A VRB3      29.93R
WILMINGTON     SUNNY     87  64  46 NW7       29.96R


$$

NCZ011>013-027>030-043-044-078>080-089-090>093-098-291700-
COASTAL PLAIN

CITY           SKY/WX    TMP DP  RH WIND       PRES   REMARKS
AHOSKIE        NOT AVBL
CLINTON        SUNNY     85  65  50 NW6       29.96S
ELIZABETHTOWN  SUNNY     85  62  46 W6        29.96R
GOLDSBORO      SUNNY     85  64  48 NW10G17   29.94R
GREENVILLE     SUNNY     86  63  45 N7        29.96R
HAVELOCK       SUNNY     84  64  50 NW10      29.93S
KENANSVILLE    SUNNY     86  63  45 W8        29.96R
KINSTON        SUNNY     86  63  45 CALM      29.96R
NEW BERN       SUNNY     86  65  49 NW8       29.95R
RICHLANDS      SUNNY     88  66  48 VRB6      29.96R
ROCKY MOUNT    SUNNY     84  64  50 W10       29.94R
WASHINGTON     SUNNY     84  64  50 NW7       29.94R
WHITEVILLE     SUNNY     84  64  50 SW6       29.97R

$$

AMZ130-135-150-152-154-156-158-170-250-252-270-ANZ085-086-088-633-658-670-291700-
MARINE OBSERVATIONS

STATION/POSITION TIME  TEMP    WIND        PRES    WAVE   SWELL
                       AIR SEA DIR/SP/G            HT/PER HT/PER
                 (UTC) (F)     (DEG/KT/KT) (MB)    (FT/S) (FT/S)
CHESAPEAKE LIGHT NOT AVBL
64 E VA BEACH    1550   64 65  280/  6/  8 1013.6    4/ 7   3/ 7
DUCK             1548   71 68   30/  8/  9 1012.7
2 E DUCK         1600      69                N/A     2/ 7
OREGON INLET     1548          310/  8/ 11   N/A
13E OREGON INLT  1548      69                N/A     3/ 7   3/ 7
HATTERAS CG      1548   79 75  270/  8/ 11 1013.4
DIAMOND BUOY     1550   75 77  260/ 10/ 10 1013.6    4/ 6   3/ 6
CAPE LOOKOUT     1600   80     220/  7/  9 1013.8
BEAUFORT LAB     1548   81 74  220/  5/ 11 1013.2
30 SE NEW RVR IN 1508   76 77  300/  6/  8 1014.0
30 SE NEW RVR IN 1543      77                N/A     3/ 6
27 SE WRIGHTSVLE 1508   76 77  300/  6/  8 1014.0
5 SE WRIGHTSVLE  1508   80 76  300/  2/  2 1013.9
225 S CAPE HAT   1550   78 77  220/ 14/ 16 1016.4    3/ 5   2/ 7
41 SE CHARLESTON 1550   77 76  250/  8/  8 1016.1    2/ 5   2/ 5

$$




USA.gov is the U.S. government's official web portal to all federal, state and local government web resources and services.